Air Resources Laboratory banner image
Air Resources Laboratory web site National Oceanic and Atmospheric Administration (NOAA)

mn roundup


Office: MPX

ASUS43 KMPX 170610
RWRMN
WEATHER ROUNDUP FOR MINNESOTA
NATIONAL WEATHER SERVICE TWIN CITIES/CHANHASSEN MN
100 AM CDT WED OCT 17 2018


NOTE: "FAIR" INDICATES FEW OR NO CLOUDS BELOW 12,000 FEET WITH NO
SIGNIFICANT WEATHER AND/OR OBSTRUCTIONS TO VISIBILITY. N/A MEANS
CURRENT SKY AND/OR WEATHER CONDITIONS ARE NOT AVAILABLE.

MNZ060>063-068>070-170700-
   Twin Cities Metro

CITY           SKY/WX    TMP DP  RH WIND       PRES   REMARKS
TWIN CITIES    CLOUDY    40  28  62 NW12G21   30.18
6HR MIN TEMP:  39; 6HR MAX TEMP:  50;

ST PAUL        CLOUDY    40  25  55 NW13G28   30.19
CRYSTAL        CLOUDY    40  26  57 N14G26    30.17
LAKEVILLE      CLOUDY    39  30  70 NW9       30.18R
EDEN PRAIRIE   CLOUDY    40  28  62 N8        30.17
6HR MIN TEMP:  40; 6HR MAX TEMP:  49;

SOUTH ST PAUL  CLOUDY    40  26  55 NW9G26    30.17R
LAKE ELMO      CLOUDY    37  28  70 NW9G21    30.18R
$$
MNZ001>005-007-008-013>017-022>024-027-028-170700-
   Northwest Minnesota

CITY           SKY/WX    TMP DP  RH WIND       PRES   REMARKS
BEMIDJI        CLOUDY    29  28  95 W10       30.17R WCI  20
HALLOCK        CLOUDY    36  30  80 NW12      30.20R
ROSEAU         CLOUDY    34  28  80 W10       30.14R WCI  26
WARROAD        CLOUDY    30  27  86 W12G20    30.12S WCI  21
THIEF RVR FALL CLOUDY    31  30  96 W10       30.20  WCI  22
CROOKSTON      MOCLDY    32  28  86 W6        30.22R WCI  26
FOSSTON        FAIR      27  27 100 W5        30.20R WCI  21
DETROIT LAKES  FAIR      32  30  93 NW8       30.22R WCI  25
MOORHEAD       MOCLDY    37  27  65 W7        30.25R
PARK RAPIDS    FAIR      30  26  85 NW8       30.17  WCI  22
MAHNOMEN       FAIR      31  29  93 NW8       30.21R WCI  23
$$
MNZ006-009>011-018-025>026-170700-
   North Central Minnesota

CITY           SKY/WX    TMP DP  RH WIND       PRES   REMARKS
BAUDETTE       CLOUDY    32  29  88 W8        30.09  WCI  25
FLAG ISLAND    MOCLDY    34  28  80 W17       30.08R WCI  23
INTL FALLS     CLOUDY    32  26  78 W8        30.08  WCI  25
6HR MIN TEMP:  30; 6HR MAX TEMP:  33; 6HR PCP: TRACE;

WASKISH        CLOUDY    34  30  86 W13G18    30.13S WCI  25
BIG FORK       CLOUDY    30  25  80 W3        30.12R
LONGVILLE      FAIR      34  27  75 NW6       30.15R WCI  29
GRAND RAPIDS   FAIR      30  25  81 NW8       30.15  WCI  22
ORR              N/A     28  21  74 W9G18     30.05S WCI  20
COOK           FAIR      28  23  80 W8        30.08S WCI  20
WALKER         FAIR      28  26  92 W7        30.16R WCI  21
$$
MNZ012-019>021-037-170700-
   Northeast Minnesota

CITY           SKY/WX    TMP DP  RH WIND       PRES   REMARKS
DULUTH         CLOUDY    33  22  63 NW13      30.08  WCI  24
6HR MIN TEMP:  33; 6HR MAX TEMP:  37;

ELY            FAIR      28  25  86 W9        30.05R WCI  20
HIBBING        FAIR      29  20  69 W8        30.10  WCI  21
EVELETH        FAIR      30  23  75 W6        30.09R WCI  24
DULUTH HARBOR  CLOUDY    37  27  65 W13       30.13S
TWO HARBORS    CLOUDY    32  23  69 W7        30.07R WCI  26
SILVER BAY     CLOUDY    34  25  69 CALM      30.04R
GRAND MARAIS     N/A     34  23  64 CALM      30.03R
G MARAIS ARPRT MOCLDY    28  19  69 NW6       29.98R WCI  22
$$
MNZ029>031-032-039>041-046>048-054>057-064-170700-
   West Central Minnesota

CITY           SKY/WX    TMP DP  RH WIND       PRES   REMARKS
FERGUS FALLS   CLOUDY    36  28  75 NW6       30.26R
WHEATON        CLEAR     30  27  86 W8        30.28R WCI  23
MORRIS         CLEAR     30  27  86 NW8       30.23R WCI  23
ALEXANDRIA     CLOUDY    38  27  64 NW9       30.20
ELBOW LAKE     CLOUDY    34  29  82 NW9       30.24R WCI  26
WADENA         CLOUDY    34  30  86 NW7       30.19R WCI  28
GLENWOOD       FAIR      30  27  86 W8        30.20R WCI  23
APPLETON       PTCLDY    28  25  86 W6        30.25R WCI  22
BENSON         CLEAR     28  25  86 NW8       30.25R WCI  20
ORTONVILLE     CLEAR     34  28  80 NW7       30.26R WCI  28
MADISON        PTCLDY    32  28  86 W8        30.27R WCI  25
WILLMAR        FAIR      32  27  80 W7        30.24R WCI  26
$$
MNZ033>034-036-042>043-049>051-058-059-170700-
   Central Minnesota

CITY           SKY/WX    TMP DP  RH WIND       PRES   REMARKS
ST CLOUD       CLOUDY    38  28  67 NW8       30.18
6HR MIN TEMP:  38; 6HR MAX TEMP:  42;

SAUK CENTRE    CLOUDY    37  29  75 NW5       30.19R
PAYNESVILLE    FAIR      28  27  98 W5        30.20R WCI  22
AITKIN         CLOUDY    34  25  69 W5        30.13S WCI  30
PINE RIVER     FAIR      30  27  86 NW6       30.19R WCI  24
BRAINERD       CLOUDY    37  27  67 NW9       30.16
STAPLES        CLOUDY    34  28  80 NW8       30.18R WCI  27
LONG PRAIRIE   CLOUDY    36  28  75 NW9       30.19R
LITTLE FALLS   CLOUDY    36  28  75 NW8       30.18S
LITCHFIELD     FAIR      36  30  80 W6        30.21R
BUFFALO        CLOUDY    39  26  59 W13G18    30.19R
MAPLE LAKE     CLOUDY    40  29  66 NW12      30.19S
HUTCHINSON     FAIR      31  28  90 W6        30.22R WCI  25
$$
MNZ037-044-045-052-053-170700-
   East Central Minnesota

CITY           SKY/WX    TMP DP  RH WIND       PRES   REMARKS
PRINCETON      CLOUDY    37  27  65 W6        30.18R
MORA           CLOUDY    36  25  64 NW8       30.17R
CAMBRIDGE      CLOUDY    39  25  56 NW6       30.17R
RUSH CITY      CLOUDY    36  24  61 N5        30.17R
MOOSE LAKE     CLOUDY    34  23  64 N5        30.12R WCI  30
HINCKLEY       CLOUDY    36  25  64 NW10      30.15R
CLOQUET        CLOUDY    34  19  55 W12G17    30.11S WCI  25
MCGREGOR       CLOUDY    34  28  80 N5        30.14S WCI  30
$$
MNZ071>073-080-081-089-090-097-098-170700-
   Southwest Minnesota

CITY           SKY/WX    TMP DP  RH WIND       PRES   REMARKS
MONTEVIDEO     PTCLDY    34  27  75 W5        30.25R WCI  30
GRANITE FALLS  CLEAR     31  28  90 W6        30.27R WCI  25
CANBY          CLEAR     34  31  87 NW6       30.29R WCI  29
MARSHALL       CLEAR     31  28  89 W7        30.27  WCI  24
REDWOOD FALLS  CLOUDY    33  28  81 W8        30.24  WCI  26
OLIVIA         CLEAR     30  28  93 W8        30.23R WCI  23
PIPESTONE      CLEAR     36  30  80 CALM      30.25R
WORTHINGTON    CLEAR     34  28  79 NW6       30.25  WCI  29
JACKSON        CLEAR     34  30  86 NW6       30.25R WCI  29
TRACY          CLEAR     36  30  79 W7        30.25R
SLAYTON        CLEAR     32  23  69 CALM      30.26R
$$
MNZ065>067-074>077-082>085-091>093-170700-
   South Central Minnesota

CITY           SKY/WX    TMP DP  RH WIND       PRES   REMARKS
MANKATO        FAIR      36  29  75 NW9       30.22
NEW ULM        CLEAR     34  27  75 NW7       30.23R WCI  28
FAIRMONT       CLEAR     38  30  73 NW10      30.24
GLENCOE        FAIR      35  31  86 W3        30.20R
OWATONNA       FAIR      34  28  80 W5        30.19R WCI  30
WASECA         FAIR      32  28  86 W5        30.21R WCI  27
ALBERT LEA     FAIR      36  30  80 W5        30.20R
$$
MNZ078>079-086>088-094>096-170700-
   Southeast Minnesota

CITY           SKY/WX    TMP DP  RH WIND       PRES   REMARKS
ROCHESTER      FAIR      34  29  82 W7        30.16  WCI  28
6HR MIN TEMP:  34; 6HR MAX TEMP:  46;

RED WING       CLOUDY    41  23  48 NW7       30.15R
STANTON        CLOUDY    34  30  83 W6        30.17R WCI  29
DODGE CENTER   FAIR      36  28  75 NW6       30.17R
WINONA         FAIR      39  28  65 NW8       30.14S
AUSTIN         FAIR      37  28  70 NW9       30.18R
PRESTON        FAIR      35  29  79 NW7       30.16R WCI  29
$$
ABBREVIATIONS USED IN REMARKS
   TC - TEMPERATURES IN CELSIUS
  WCI - WIND CHILL INDEX
   HX - HEAT INDEX
  VSB - VISIBILITY
$$




Office: FSD ASUS43 KFSD 170702 RWRSD WEATHER ROUNDUP FOR SOUTH DAKOTA NATIONAL WEATHER SERVICE SIOUX FALLS SD 200 AM CDT WED OCT 17 2018 NOTE: "FAIR" INDICATES FEW OR NO CLOUDS BELOW 12,000 FEET WITH NO SIGNIFICANT WEATHER AND/OR OBSTRUCTIONS TO VISIBILITY. SDZ001>005-009-010-012>017-170800- NORTHWEST AND NORTH CENTRAL SOUTH DAKOTA CITY SKY/WX TMP DP RH WIND PRES REMARKS BUFFALO N/A 39 31 72 W13 30.29R FAITH N/A 44 36 73 W9 30.31R MOBRIDGE CLOUDY 46 35 65 CALM 30.29R $$ SDZ012>016-024>037-041>051-057-063-072>074-170800- SOUTHWEST AND SOUTH CENTRAL SOUTH DAKOTA CITY SKY/WX TMP DP RH WIND PRES REMARKS RAPID CTY ARPT CLEAR 33 28 81 W3 30.38R PIERRE PTCLDY 41 35 79 W8 30.31R CUSTER CLEAR 36 27 69 SW3 30.42S ELLSWORTH AFB CLEAR 40 36 83 W7 30.36S PHILIP PTCLDY 40 35 83 W12 30.35R PINE RIDGE CLEAR 30 28 92 CALM 30.41S SPEARFISH FAIR 41 32 70 W5 30.38S WINNER FAIR 42 33 70 W9 30.35R $$ SDZ004>011-016>023-039-040-170800- NORTHEAST SOUTH DAKOTA CITY SKY/WX TMP DP RH WIND PRES REMARKS ABERDEEN CLOUDY 29 25 85 NW5 30.34R WCI 24 WATERTOWN CLEAR 28 25 88 CALM 30.29R BROOKINGS CLEAR 29 27 92 NW3 30.30R $$ SDZ017-020-022-023-036>040-048>070-170800- SOUTHEAST SOUTH DAKOTA CITY SKY/WX TMP DP RH WIND PRES REMARKS SIOUX FALLS CLEAR 37 30 75 W8 30.29R HURON CLEAR 31 27 85 NW6 30.32R WCI 25 MITCHELL CLEAR 39 32 76 NW8 30.32R YANKTON CLEAR 40 33 76 SW8 30.30S $$ ABBREVIATIONS USED IN REMARKS TC - TEMPERATURE IN CELSIUS WCI - WIND CHILL INDEX HX - HEAT INDEX VSB - VISIBILITY ASUS43 KFSD 170702 RWRFSD WEATHER ROUNDUP FOR SE SOUTH DAKOTA/SW MINNESOTA/NW IOWA NATIONAL WEATHER SERVICE SIOUX FALLS SD 200 AM CDT WED OCT 17 2018 NOTE: "FAIR" INDICATES FEW OR NO CLOUDS BELOW 12,000 FEET WITH NO SIGNIFICANT WEATHER AND OR OBSTRUCTIONS TO VISIBILITY. SDZ038>040-050-052>070-170800- SOUTHEAST SOUTH DAKOTA CITY SKY/WX TMP DP RH WIND PRES REMARKS BROOKINGS CLEAR 29 27 92 NW3 30.30R CHAMBERLAIN NOT AVBL HURON CLEAR 31 27 85 NW6 30.32R WCI 25 MADISON N/A 32 30 93 NW7 30.29R WCI 26 MITCHELL CLEAR 39 32 76 NW8 30.32R SIOUX FALLS CLEAR 37 30 75 W8 30.29R WINNER FAIR 42 33 70 W9 30.35R YANKTON CLEAR 40 33 76 SW8 30.30S $$ MNZ071-072-080-081-089-090-097-098-170800- SOUTHWEST MINNESOTA CITY SKY/WX TMP DP RH WIND PRES REMARKS FAIRMONT CLEAR 35 29 78 NW9 30.26R WCI 28 JACKSON CLEAR 32 30 93 NW5 30.27R WCI 27 LUVERNE CLEAR 32 28 86 N5 30.29R WCI 27 MARSHALL CLEAR 31 27 85 NW9 30.30R WCI 23 MONTEVIDEO CLEAR 30 25 80 NW3 30.28R PIPESTONE CLEAR 36 30 80 CALM 30.28R REDWOOD FALLS PTCLDY 33 28 81 W12 30.27R WCI 24 TRACY CLEAR 35 30 82 W5 30.28R WORTHINGTON CLEAR 31 28 89 NW6 30.28R WCI 25 $$ IAZ001>003-012>014-020>022-031-032-NEZ013-014-SDZ071-170800- NORTHWEST IOWA CITY SKY/WX TMP DP RH WIND PRES REMARKS CHEROKEE CLEAR 36 33 87 CALM 30.28R DENISON CLEAR 34 34 100 CALM 30.30S ESTHERVILLE CLEAR 31 28 89 NW7 30.26R WCI 24 ORANGE CITY CLEAR 37 34 87 W5 30.28R SHELDON CLEAR 32 30 93 SW6 30.26R WCI 26 SIOUX CITY CLOUDY 42 37 82 NW6 30.30S SPENCER CLEAR 31 28 89 NW6 30.27R WCI 25 STORM LAKE CLEAR 37 32 81 W10 30.26S $$ ABBREVIATIONS USED IN REMARKS TC - TEMPERATURE IN CELSIUS WCI - WIND CHILL INDEX HX - HEAT INDEX VSB - VISIBILITY